Location: Seven Kings
(51.5667°N, 0.1000°E)
Time: 02:33:22
(UTC+00:00)

FALCON 9 DEB - Pass Details

Date: 29 October 2020
Orbit: 382 x 399 km, 53.0° (Epoch: 23 November)

Event Time Altitude Azimuth Distance (km) Brightness Sun altitude
Rises 18:15:33 0° 250° (WSW) 2,315 8.3 -15.7°
Reaches altitude 10° 18:17:37 10° 250° (WSW) 1,455 6.9 -16.1°
Maximum altitude 18:20:53 83° 163° (SSE) 409 2.9 -16.6°
Enters shadow 18:21:40 49° 80° (E) 529 3.1 -16.7°
